Location: La Combe
(45.1333°N, 4.2833°E)
Time: 03:29:48
(UTC+00:00)

Daily predictions for brighter satellites

Satellite Brightness Start Highest point End
(mag) Time Altitude Azimuth Time Altitude Azimuth Time Altitude Azimuth
Cosmos 2360 Rocket 4.2 02:15:11 24° NE 02:15:11 24° NE 02:17:21 10° NNE
USA 267 3.8 02:25:09 10° NE 02:30:09 55° ENE 02:30:09 55° ENE
COSMOS 2455 3.9 02:36:11 42° ENE 02:36:11 42° ENE 02:40:15 10° NE
Cosmos 2278 Rocket 4.0 02:46:15 10° N 02:51:08 28° NE 02:56:00 10° ESE
ADEOS II 4.1 02:47:29 10° N 02:49:01 19° N 02:49:01 19° N
Cosmos 2333 Rocket 3.0 02:55:19 46° E 02:55:19 46° E 03:00:30 10° NE
USA 234 3.3 02:59:08 10° ESE 03:05:40 76° NE 03:06:33 66° NNW
SL-16 R/B 4.1 03:17:01 19° NNW 03:17:01 19° NNW 03:19:14 10° N
Cosmos 2322 4.1 03:19:21 55° N 03:19:21 55° N 03:23:56 10° NNE
ATLAS 3B R/B 3.7 03:15:12 14° NNW 03:20:32 42° NE 03:26:58 10° ESE
Cosmos 2219 Rocket 2.1 03:23:39 77° SE 03:23:48 78° ESE 03:29:25 10° NNE
IDEFIX/ARIANE 42P 2.8 03:20:45 10° NNE 03:25:59 66° ESE 03:27:07 51° SSE
Cosmos 2237 Rocket 3.6 03:27:24 10° S 03:32:27 36° ESE 03:37:37 10° NE
CENTAUR R/B 3.6 03:25:18 10° NW 03:33:05 59° NE 03:41:36 10° SE
Cosmos 2251 Rocket 4.0 03:39:57 48° NNW 03:39:57 48° NNW 03:44:21 10° NNE
NOSS 2-2 (C) 4.2 03:41:45 44° NNE 03:41:45 44° NNE 03:44:44 10° NE
ATLAS 2AS CENTAUR R/B 3.2 03:36:56 27° SSW 03:41:38 72° ESE 03:49:40 10° NE
BREEZE-M R/B 3.6 03:43:11 62° WNW 03:43:53 69° NNW 03:53:02 10° ENE
COSMOS 2428 2.6 03:45:12 64° WSW 03:45:56 73° WNW 03:51:38 10° NNE
USA 238 DEB 3.7 03:42:52 35° NW 03:46:05 67° WSW 03:53:26 10° SSE
USA 238 3.7 03:42:55 35° NW 03:46:13 67° WSW 03:53:32 10° SSE
Cosmos 2322 Rocket 4.1 03:47:28 16° NNW 03:47:28 16° NNW 03:49:48 10° N
Cosmos 1980 4.4 03:44:35 14° S 03:49:18 53° ESE 03:54:47 10° NE
Cosmos 2360 Rocket 3.5 03:56:58 24° NW 03:56:58 24° NW 04:00:50 10° N
Cosmos 1470 3.1 03:54:27 10° N 03:58:22 64° E 04:02:14 10° SSE
Cosmos 1707 4.0 03:55:19 10° SSE 03:59:00 41° E 04:02:43 10° NNE
Cosmos 1842 4.3 04:02:09 32° NNW 04:02:09 32° NNW 04:04:30 10° N
Cosmos 1709 Rocket 4.2 04:02:05 42° WSW 04:03:10 45° WNW 04:09:15 10° N
Cosmos 2184 Rocket 4.1 04:00:32 10° S 04:06:42 80° E 04:13:01 10° N
Cosmos 1190 Rocket 4.4 04:05:28 10° S 04:10:43 65° ESE 04:15:58 10° NNE
ERBS 2.2 04:11:12 78° N 04:11:12 78° N 04:14:28 10° NE
H-2A R/B 2.3 04:07:24 10° N 04:11:32 72° WNW 04:13:27 32° SSW
NOSS 3-2 (A) 4.1 04:05:40 17° NW 04:11:38 57° WSW 04:19:50 10° SSE
Cosmos 407 Rocket 3.6 04:07:30 10° SSW 04:12:37 76° ESE 04:17:45 10° NNE
USA 267 3.8 04:08:20 10° NE 04:14:30 45° NNW 04:17:30 28° WNW
SJ-6F 4.4 04:10:37 10° NNE 04:14:48 85° ESE 04:18:56 10° SSW
NOSS 2-2 (E) 4.2 04:16:35 32° NW 04:16:35 32° NW 04:20:28 10° NNE
COSMO-SKYMED 1 4.2 04:13:33 10° SE 04:17:30 35° ENE 04:21:28 10° N
ADEOS 3.8 04:14:09 10° N 04:19:07 45° WNW 04:21:05 31° WSW
CZ-2C R/B 2.5 04:15:04 10° NNE 04:20:18 87° ESE 04:25:28 10° SSW
COSMOS 2455 3.7 04:19:21 27° WNW 04:20:39 30° NW 04:25:53 10° NNE
SL-16 R/B 3.8 04:19:45 10° S 04:24:52 37° ESE 04:30:01 10° NE
USA 32 4.1 04:23:36 10° SSW 04:28:44 56° W 04:33:54 10° N
Meteor 1-4 Rocket 2.9 04:25:41 10° S 04:29:10 62° E 04:32:37 10° NNE
Cosmos 1726 Rocket 4.1 04:26:45 10° N 04:31:02 60° E 04:35:17 10° SSE
NOSS 0 Rocket 3.9 04:26:28 14° SW 04:31:51 68° WNW 04:38:04 10° NNE
Cosmos 292 Rocket 4.0 04:29:24 10° NNW 04:33:58 45° WSW 04:38:31 10° S
PSLV R/B 4.5 04:30:48 10° N 04:34:17 27° WNW 04:34:17 27° WNW
NOSS 3-2 (C) 4.1 04:27:27 10° NW 04:34:57 60° WSW 04:43:12 10° SSE
Cosmos 2228 3.2 04:30:42 10° N 04:34:59 71° E 04:39:11 10° SSE
Cosmos 2297 4.5 04:29:21 10° NNW 04:35:01 54° ENE 04:40:38 10° SE
Cosmos 2278 Rocket 2.3 04:30:01 10° NW 04:35:30 52° WSW 04:40:58 10° S
Cosmos 1025 Rocket 3.7 04:35:00 30° W 04:35:36 31° WNW 04:39:28 10° N
Cosmos 44 3.0 04:33:09 20° NW 04:36:02 59° WSW 04:40:16 10° SSE
Okean O Rocket 3.7 04:34:52 10° NE 04:38:46 30° E 04:42:37 10° SSE
Cosmos 2333 Rocket 3.0 04:37:22 24° W 04:39:32 31° NW 04:44:35 10° N
Cosmos 2074 Rocket 4.0 04:33:52 10° SSW 04:39:59 57° WNW 04:46:08 10° N
Cosmos 921 Rocket 3.8 04:42:56 21° WNW 04:44:41 28° W 04:48:17 10° SSW
Cosmos 2058 Rocket 3.7 04:43:07 10° N 04:47:30 60° E 04:51:52 10° SSE
USA 234 3.9 04:43:10 10° SSE 04:49:02 35° SW 04:53:54 14° WNW
Cosmos 1954 Rocket 4.1 04:43:50 10° SSW 04:49:05 79° ESE 04:54:19 10° NNE
CZ-4B R/B 2.9 04:45:44 10° N 04:49:43 55° WNW 04:53:29 10° SSW
Cosmos 389 Rocket 2.7 04:48:02 10° SSW 04:51:17 42° WNW 04:54:36 10° N
NOSS 3-4 (A) 3.4 04:46:05 10° SW 04:52:01 67° NW 04:58:25 10° NE
NOSS 3-4 (C) 3.4 04:46:05 10° SW 04:52:07 68° NW 04:58:32 10° NE
Cosmos 1437 Rocket 3.5 04:51:02 10° S 04:54:43 54° E 04:58:26 10° NNE
PSLV R/B 3.5 04:54:25 10° N 04:58:09 75° WNW 05:01:49 10° SSW
Cosmos 1140 Rocket 3.4 04:53:38 10° SSW 04:58:48 65° WNW 05:03:57 10° NNE
Cosmos 1953 2.8 04:58:47 10° NNW 05:02:33 38° W 05:06:15 10° SSW
Cosmos 614 Rocket 4.4 04:58:49 10° SW 05:03:45 42° WNW 05:08:42 10° N
IDEFIX/ARIANE 42P 3.9 05:01:26 10° NNW 05:05:03 19° WNW 05:07:54 13° W
SKYMED 2 3.5 05:01:06 10° S 05:05:26 74° WSW 05:09:48 10° NNW
Cosmos 2219 Rocket 3.5 05:05:25 14° W 05:08:25 20° NW 05:12:32 10° N
ATLAS 3B R/B 2.9 05:04:55 10° NW 05:11:21 50° WSW 05:17:55 10° S
Helios 1A Rocket 3.1 05:09:41 10° NNE 05:13:52 81° ESE 05:18:01 10° SSW
Cosmos 1892 Rocket 3.6 05:10:05 10° SSW 05:14:28 60° W 05:18:51 10° N
Cosmos 2237 Rocket 2.7 05:11:12 10° WSW 05:16:28 38° NW 05:21:47 10° NNE
BREEZE-M DEB (TANK) 3.1 05:15:00 12° WNW 05:16:50 32° N 05:19:29 10° ENE
Cosmos 1356 3.7 05:14:02 10° NNW 05:17:21 44° W 05:20:39 10° S
Meteor PRIRODA 4.2 05:13:58 10° N 05:17:27 36° WNW 05:20:53 10° SW
CZ-4B DEB 4.2 05:11:58 10° NNE 05:17:28 81° WNW 05:22:55 10° SSW
GP-B 3.3 05:14:40 10° SSW 05:18:59 50° W 05:23:19 10° NNW
PAYLOAD B 4.2 05:17:05 10° NNE 05:22:41 82° WNW 05:28:13 10° SSW
Cosmos 1908 3.2 05:19:14 10° N 05:23:05 87° W 05:26:54 10° S
CENTAUR R/B 3.6 05:16:15 10° NW 05:23:51 44° WSW 05:31:54 10° S
BREEZE-M DEB (TANK) 2.9 05:22:08 11° W 05:24:08 31° SSW 05:26:37 10° SE
In-Cosmos 22 4.2 05:18:58 10° SSW 05:24:12 58° WNW 05:29:37 10° N
Meteor 1-31 Rocket 4.0 05:22:39 10° NNW 05:25:32 21° WNW 05:28:23 10° WSW
MOS 1-B 4.4 05:20:07 10° N 05:25:52 62° WNW 05:31:35 10° SSW
Cosmos 1606 Rocket 4.4 05:23:41 10° NNW 05:27:19 27° W 05:30:56 10° SSW
RESURS DK-1 2.4 05:25:38 10° SW 05:29:43 59° WNW 05:33:49 10° NNE
COSMOS 2428 4.4 05:27:57 10° WNW 05:31:15 15° NW 05:34:33 10° N
Cosmos 2369 Rocket 3.4 05:26:44 10° NNW 05:32:07 45° ENE 05:37:27 10° SE
ATLAS 2AS CENTAUR R/B 3.7 05:25:52 10° WSW 05:33:18 39° NW 05:40:42 10° NNE
Gblst 52 Del rocket 4.4 05:28:42 10° WNW 05:34:17 82° NNE 05:40:24 10° ESE
Meteor 2-10 4.3 05:29:36 10° NNW 05:34:33 47° W 05:39:39 10° SSW
Cosmos 1707 4.4 05:32:38 10° WSW 05:35:06 16° WNW 05:37:34 10° NNW
SJ-12 4.2 05:31:24 10° N 05:35:21 48° WNW 05:39:18 10° SW
NOAA 6 4.1 05:31:44 10° NNE 05:36:57 84° WNW 05:42:06 10° SSW
